Location: Gälforsberget
(66.6500°N, 22.4167°E)
Time: 18:36:48
(UTC+00:00)

Cosmos 371 Rocket - Pass Details

Date: 11 April 2026
Orbit: 674 x 689 km, 74.0° (Epoch: 19 May)

Event Time Altitude Azimuth Distance (km) Brightness Sun altitude
Rises 19:33:11 0° 304° (NW) 3,058 8.7 -8.2°
Reaches altitude 10° 19:35:35 10° 311° (NW) 2,143 7.5 -8.4°
Maximum altitude 19:40:13 45° 25° (NNE) 939 4.2 -8.7°
Drops below altitude 10° 19:44:53 10° 99° (E) 2,146 5.4 -9.0°
Enters shadow 19:45:50 - 102° (ESE) 2,507 5.7 -9.1°
